This is the latest recevied weather packets stored in our database for station/object N2WH. If no packets are shown the sender has not sent any weather packets the latest 10 day(s).
| Time | Temp. | Humidity | Pressure | Rain* | Wind** | Luminosity | Snow |
|---|---|---|---|---|---|---|---|
| 1777727592 | 10° C | 75% | 1013.6 hPa | 0 mm | - | 179 W/m² | - |
| 1777727289 | 9.44° C | 73% | 1013.4 hPa | 0 mm | - | 163 W/m² | - |
| 1777726987 | 10° C | 73% | 1013.6 hPa | 0 mm | - | 189 W/m² | - |
| 1777726683 | 10° C | 75% | 1013.7 hPa | 0 mm | - | 206 W/m² | - |
| 1777726380 | 10° C | 78% | 1013.6 hPa | 0 mm | - | 199 W/m² | - |
| 1777726076 | 10° C | 81% | 1013.8 hPa | 0 mm | - | 162 W/m² | - |
| 1777725773 | 10° C | 81% | 1013.5 hPa | 0 mm | - | 180 W/m² | - |
| 1777725472 | 10° C | 81% | 1013.4 hPa | 0 mm | - | 165 W/m² | - |
| 1777725169 | 9.44° C | 81% | 1013.3 hPa | 0 mm | - | 177 W/m² | - |
| 1777724865 | 10° C | 82% | 1013.2 hPa | 0 mm | - | 159 W/m² | - |
| 1777724561 | 9.44° C | 83% | 1013 hPa | 0 mm | - | 122 W/m² | - |
| 1777724260 | 9.44° C | 84% | 1013.2 hPa | 0 mm | - | 152 W/m² | - |
| 1777723958 | 10° C | 85% | 1013 hPa | 0 mm | - | 119 W/m² | - |
| 1777723654 | 9.44° C | 86% | 1013.1 hPa | 0 mm | - | 143 W/m² | - |
| 1777723351 | 9.44° C | 86% | 1012.8 hPa | 0 mm | - | 112 W/m² | - |
| 1777723049 | 9.44° C | 87% | 1012.8 hPa | 0 mm | - | 92 W/m² | - |
| 1777722745 | 9.44° C | 88% | 1012.9 hPa | 0 mm | - | 83 W/m² | - |
| 1777722441 | 9.44° C | 88% | 1013.1 hPa | 0 mm | - | 82 W/m² | - |
| 1777722138 | 9.44° C | 89% | 1013.1 hPa | 0 mm | - | 79 W/m² | - |
| 1777721835 | 8.89° C | 90% | 1013.1 hPa | 0 mm | - | 55 W/m² | - |
| 1777721533 | 8.89° C | 92% | 1013.1 hPa | 0 mm | - | 62 W/m² | - |
| 1777721231 | 8.89° C | 93% | 1013.1 hPa | 0 mm | - | 69 W/m² | - |
| 1777720929 | 8.89° C | 94% | 1013 hPa | 0 mm | - | 47 W/m² | - |
| 1777720625 | 8.89° C | 95% | 1013.1 hPa | 0 mm | - | 44 W/m² | - |
| 1777720323 | 8.33° C | 95% | 1012.9 hPa | 0 mm | - | 45 W/m² | - |
* Rain latest hour (hover to see other rain measurements)
** Current wind speed in m/s (hover to see current wind gust speed)